Location: Newark
(27.9675°N, 86.8869°E)
Time: 10:18:02
(UTC+00:00)

Tiros 1 despin weight - Visible Passes

Search period start: 23 October 2019 00:00
Search period end: 02 November 2019 00:00
Orbit: 593 x 643 km, 48.2° (Epoch: 22 October)

Date Brightness Start Highest point End Pass type
(mag) Time Alt. Az. Time Alt. Az. Time Alt. Az.
23 Oct ? 22:22:32 10° N 22:24:18 12° NNE 22:26:03 10° NE visible
24 Oct ? 22:38:44 13° N 22:41:22 19° NNE 22:44:45 10° ENE visible
25 Oct ? 22:55:02 16° NNW 22:58:15 35° NE 23:02:30 10° ESE visible
26 Oct ? 21:34:19 13° NE 21:34:19 13° NE 21:35:20 10° ENE visible
26 Oct ? 23:11:25 18° NW 23:14:55 73° NE 23:19:34 10° SE visible
27 Oct ? 21:50:48 22° NE 21:50:48 22° NE 21:53:32 10° E visible
27 Oct ? 23:27:54 16° WNW 23:31:27 50° SW 23:35:56 10° SSE visible
28 Oct ? 13:29:17 10° S 13:29:18 10° S 13:29:18 10° S visible
28 Oct ? 22:07:22 41° ENE 22:07:22 41° ENE 22:11:00 10° ESE visible
28 Oct ? 23:44:29 11° W 23:47:50 22° SW 23:51:23 10° S visible
29 Oct ? 13:44:54 10° SSW 13:46:01 17° SSW 13:46:01 17° SSW visible
29 Oct ? 22:24:01 57° SSE 22:24:01 57° SSE 22:27:46 10° SE visible
30 Oct ? 12:22:14 10° SSE 12:24:43 15° SE 12:25:34 14° ESE visible
30 Oct ? 14:01:23 10° WSW 14:02:40 19° WSW 14:02:40 19° WSW visible
30 Oct ? 22:40:43 30° SSW 22:40:43 30° SSW 22:43:48 10° SSE visible
31 Oct ? 12:36:59 10° SSW 12:41:01 34° SE 12:42:10 29° E visible
31 Oct ? 14:18:33 10° W 14:19:16 14° W 14:19:16 14° W visible
31 Oct ? 22:57:27 13° SSW 22:57:27 13° SSW 22:58:37 10° SSW visible
01 Nov ? 12:53:00 10° SW 12:57:29 81° SE 12:58:40 49° ENE visible
